Platteville, WI

2:57 AM CDT on September 27, 2016 (GMT -0500)
Platteville Municipal

Weather History for KPVB - April, 2013

Change the Weather History Date:

Sunday, April 7, 2013

  Actual Average (KDBQ) Record (KDBQ)
Temperature  
Mean Temperature 46 °F 45 °F  
Max Temperature 55 °F 55 °F 80 °F (1893)
Min Temperature 37 °F 35 °F 11 °F (1982)
Degree Days  
Heating Degree Days 19 20  
Month to date heating degree days 150  
Since 1 July heating degree days 6461  
Cooling Degree Days 0 0  
Month to date cooling degree days 0  
Year to date cooling degree days 0  
Moisture  
Dew Point 35 °F    
Average Humidity 71    
Maximum Humidity 87    
Minimum Humidity 47    
Precipitation  
Precipitation 0.00 in 0.11 in 0.87 in (2002)
Month to date precipitation 0.75  
Year to date precipitation 5.77  
Snow  
Snow 0.00 in 0.10 in - ()
Month to date snowfall 0.8  
Since 1 July snowfall 40.7  
Snow Depth -    
Sea Level Pressure  
Sea Level Pressure 29.86 in    
Wind  
Wind Speed 10 mph (WNW)    
Max Wind Speed 20 mph    
Max Gust Speed 25 mph    
Visibility 10 miles    
Events      
T = Trace of Precipitation, MM = Missing Value Source: NWS Daily Summary

Daily Weather History Graph

Daily Weather History Graph

Search for Another Location

Airport or City:

Trip Planner

Search our weather history database for the weather conditions in past years. The results will help you decide how hot, cold, wet, or windy it might be!

Date:

Astronomy

Apr. 07, 2013 Rise Set
Actual Time 6:33 AM CDT 7:35 PM CDT
Civil Twilight 6:04 AM CDT 8:03 PM CDT
Nautical Twilight 5:30 AM CDT 8:38 PM CDT
Astronomical Twilight 4:54 AM CDT 9:14 PM CDT
Moon 4:54 AM CDT (4/7) 5:04 PM CDT (4/7)
Length of Visible Light 13h 59m
Length of Day
13h 01m
Waning Crescent, 8% of the Moon is Illuminated
Apr 7
Waning Crescent
Apr 10
New
Apr 18
First Quarter
Apr 25
Full
May 2
Last Quarter

Hourly Weather History & Observations

Time (CDT) Temp. Windchill Dew Point Humidity Pressure Visibility Wind Dir Wind Speed Gust Speed Precip Events Conditions
12:15 AM 44.6 °F 38.4 °F 41.0 °F 87% 29.68 in 10.0 mi West 12.7 mph 19.6 mph N/A   Overcast
12:35 AM 44.6 °F 36.6 °F 39.2 °F 81% 29.69 in 10.0 mi West 19.6 mph 25.3 mph N/A   Overcast
12:55 AM 42.8 °F 35.1 °F 37.4 °F 81% 29.70 in 10.0 mi West 16.1 mph 24.2 mph N/A   Overcast
1:15 AM 42.8 °F 35.1 °F 37.4 °F 81% 29.71 in 10.0 mi West 16.1 mph 24.2 mph N/A   Overcast
1:35 AM 41.0 °F 33.5 °F 37.4 °F 87% 29.72 in 7.0 mi West 13.8 mph 21.9 mph N/A   Overcast
1:55 AM 41.0 °F 33.9 °F 37.4 °F 87% 29.73 in 7.0 mi West 12.7 mph 16.1 mph N/A   Overcast
2:15 AM 41.0 °F 33.5 °F 35.6 °F 81% 29.74 in 7.0 mi West 13.8 mph - N/A   Overcast
2:35 AM 41.0 °F 33.1 °F 35.6 °F 81% 29.74 in 10.0 mi West 15.0 mph 21.9 mph N/A   Overcast
2:55 AM 39.2 °F 31.2 °F 35.6 °F 87% 29.76 in 10.0 mi West 13.8 mph - N/A   Overcast
3:15 AM 39.2 °F 30.5 °F 33.8 °F 81% 29.76 in 10.0 mi West 16.1 mph 20.7 mph N/A   Overcast
3:35 AM 37.4 °F 29.3 °F 33.8 °F 87% 29.77 in 10.0 mi West 12.7 mph 20.7 mph N/A   Overcast
3:55 AM 37.4 °F 28.9 °F 33.8 °F 87% 29.77 in 10.0 mi WNW 13.8 mph - N/A   Overcast
4:15 AM 37.4 °F 30.8 °F 33.8 °F 87% 29.78 in 10.0 mi WNW 9.2 mph - N/A   Overcast
4:35 AM 37.4 °F 31.4 °F 33.8 °F 87% 29.79 in 10.0 mi WNW 8.1 mph - N/A   Overcast
4:55 AM 37.4 °F 31.4 °F 33.8 °F 87% 29.80 in 10.0 mi WNW 8.1 mph - N/A   Overcast
5:35 AM 37.4 °F 31.4 °F 33.8 °F 87% 29.82 in 10.0 mi West 8.1 mph - N/A   Overcast
5:55 AM 37.4 °F 32.1 °F 33.8 °F 87% 29.82 in 10.0 mi WNW 6.9 mph - N/A   Overcast
6:15 AM 37.4 °F 31.4 °F 32.0 °F 81% 29.84 in 10.0 mi WNW 8.1 mph - N/A   Overcast
6:35 AM 37.4 °F 33.8 °F 32.0 °F 81% 29.85 in 10.0 mi WNW 4.6 mph - N/A   Overcast
7:15 AM 37.4 °F 34.9 °F 32.0 °F 81% 29.87 in 10.0 mi WNW 3.5 mph - N/A   Overcast
7:35 AM 37.4 °F 30.8 °F 32.0 °F 81% 29.88 in 10.0 mi NW 9.2 mph - N/A   Overcast
7:55 AM 37.4 °F 30.3 °F 32.0 °F 81% 29.89 in 10.0 mi NW 10.4 mph - N/A   Overcast
8:15 AM 37.4 °F 31.4 °F 32.0 °F 81% 29.89 in 10.0 mi NW 8.1 mph - N/A   Overcast
8:35 AM 37.4 °F 32.1 °F 32.0 °F 81% 29.90 in 10.0 mi NW 6.9 mph - N/A   Overcast
8:55 AM 37.4 °F 30.8 °F 32.0 °F 81% 29.91 in 10.0 mi NW 9.2 mph - N/A   Overcast
9:15 AM 37.4 °F 32.8 °F 32.0 °F 81% 29.92 in 10.0 mi WNW 5.8 mph - N/A   Overcast
9:35 AM 37.4 °F 31.4 °F 32.0 °F 81% 29.92 in 10.0 mi NNW 8.1 mph - N/A   Overcast
9:55 AM 39.2 °F 35.0 °F 32.0 °F 75% 29.93 in 10.0 mi West 5.8 mph - N/A   Overcast
10:35 AM 41.0 °F 38.0 °F 32.0 °F 70% 29.95 in 10.0 mi WNW 4.6 mph - N/A   Overcast
10:55 AM 41.0 °F 37.1 °F 33.8 °F 76% 29.96 in 10.0 mi North 5.8 mph - N/A   Mostly Cloudy
11:15 AM 42.8 °F 40.1 °F 33.8 °F 70% 29.96 in 10.0 mi NW 4.6 mph - N/A   Overcast
11:35 AM 42.8 °F 38.0 °F 33.8 °F 70% 29.97 in 10.0 mi West 8.1 mph - N/A   Overcast
11:55 AM 44.6 °F 43.1 °F 33.8 °F 66% 29.96 in 10.0 mi NW 3.5 mph - N/A   Mostly Cloudy
12:15 PM 44.6 °F 40.7 °F 35.6 °F 71% 29.97 in 10.0 mi WNW 6.9 mph - N/A   Mostly Cloudy
12:35 PM 46.4 °F 43.5 °F 35.6 °F 66% 29.95 in 10.0 mi West 5.8 mph - N/A   Mostly Cloudy
12:55 PM 46.4 °F 42.9 °F 35.6 °F 66% 29.95 in 10.0 mi West 6.9 mph - N/A   Scattered Clouds
1:15 PM 46.4 °F 44.3 °F 35.6 °F 66% 29.95 in 10.0 mi WNW 4.6 mph - N/A   Clear
1:35 PM 48.2 °F - 35.6 °F 62% 29.95 in 10.0 mi Calm Calm - N/A   Clear
1:55 PM 48.2 °F - 35.6 °F 62% 29.94 in 10.0 mi Calm Calm - N/A   Clear
2:15 PM 50.0 °F - 35.6 °F 58% 29.93 in 10.0 mi NNW 4.6 mph - N/A   Clear
2:35 PM 51.8 °F - 35.6 °F 54% 29.93 in 10.0 mi Calm Calm - N/A   Clear
2:55 PM 51.8 °F - 35.6 °F 54% 29.93 in 10.0 mi SSE 3.5 mph - N/A   Clear
3:15 PM 51.8 °F - 35.6 °F 54% 29.92 in 10.0 mi Calm Calm - N/A   Clear
3:35 PM 53.6 °F - 35.6 °F 51% 29.91 in 10.0 mi Calm Calm - N/A   Clear
3:55 PM 53.6 °F - 35.6 °F 51% 29.91 in 10.0 mi Calm Calm - N/A   Clear
4:35 PM 55.4 °F - 35.6 °F 47% 29.91 in 10.0 mi SSW 4.6 mph - N/A   Clear
4:55 PM 55.4 °F - 37.4 °F 51% 29.90 in 10.0 mi SSE 4.6 mph - N/A   Clear
5:15 PM 55.4 °F - 35.6 °F 47% 29.89 in 10.0 mi SSE 3.5 mph - N/A   Clear
5:35 PM 55.4 °F - 35.6 °F 47% 29.89 in 10.0 mi South 5.8 mph - N/A   Clear
5:55 PM 55.4 °F - 35.6 °F 47% 29.89 in 10.0 mi SSE 3.5 mph - N/A   Clear
6:15 PM 55.4 °F - 35.6 °F 47% 29.89 in 10.0 mi SE 5.8 mph - N/A   Clear
6:35 PM 55.4 °F - 35.6 °F 47% 29.89 in 10.0 mi SE 3.5 mph - N/A   Clear
6:55 PM 55.4 °F - 35.6 °F 47% 29.89 in 10.0 mi ESE 3.5 mph - N/A   Clear
7:15 PM 53.6 °F - 35.6 °F 51% 29.88 in 10.0 mi East 4.6 mph - N/A   Clear
7:35 PM 53.6 °F - 37.4 °F 54% 29.88 in 10.0 mi East 5.8 mph - N/A   Clear
7:55 PM 51.8 °F - 35.6 °F 54% 29.87 in 10.0 mi East 6.9 mph - N/A   Clear
8:15 PM 50.0 °F - 37.4 °F 62% 29.88 in 10.0 mi East 8.1 mph - N/A   Clear
8:35 PM 48.2 °F - 37.4 °F 66% 29.88 in 10.0 mi East 8.1 mph - N/A   Clear
8:55 PM 46.4 °F 41.9 °F 37.4 °F 71% 29.88 in 10.0 mi East 9.2 mph - N/A   Clear
9:35 PM 46.4 °F 41.9 °F 37.4 °F 71% 29.88 in 10.0 mi East 9.2 mph - N/A   Clear
9:55 PM 46.4 °F 42.4 °F 39.2 °F 76% 29.87 in 10.0 mi East 8.1 mph - N/A   Mostly Cloudy
10:15 PM 46.4 °F 41.9 °F 39.2 °F 76% 29.86 in 10.0 mi East 9.2 mph - N/A   Mostly Cloudy
10:35 PM 46.4 °F 41.5 °F 39.2 °F 76% 29.85 in 10.0 mi East 10.4 mph - N/A   Mostly Cloudy
10:55 PM 44.6 °F 39.2 °F 39.2 °F 81% 29.83 in 10.0 mi East 10.4 mph - N/A   Scattered Clouds
11:15 PM 44.6 °F 38.8 °F 39.2 °F 81% 29.82 in 10.0 mi East 11.5 mph - N/A   Clear
11:35 PM 46.4 °F 40.1 °F 39.2 °F 76% 29.82 in 10.0 mi East 15.0 mph - N/A   Clear